EW9042 Weather Reports


Display with metric or nautical units.
time (UTC)temp
F
wind
direction
speed
MPH
gust
MPH
rain 1hr
in
rain 24hr
in
rain mn
in
humidity
%
barometer
mb
20260510081049 57 44 6.0 14.0 0.00 0.09 0.00 83 1010.4
20260510080548 57 61 5.0 17.0 0.00 0.09 0.00 83 1010.5
20260510080055 57 49 4.0 17.0 0.00 0.09 0.00 82 1010.5
20260510075548 58 67 2.0 15.0 0.00 0.10 0.00 83 1010.5
20260510075050 58 39 1.0 15.0 0.00 0.10 0.00 84 1010.5
20260510074547 57 76 4.0 16.0 0.00 0.10 0.00 83 1010.6
20260510074045 57 30 5.0 17.0 0.00 0.10 0.00 85 1010.5
20260510073544 57 34 8.0 17.0 0.00 0.10 0.00 84 1010.4
20260510073044 56 28 10.0 17.0 0.00 0.10 0.00 86 1010.4
20260510072543 56 76 9.0 19.0 0.00 0.10 0.00 86 1010.3
20260510072043 55 60 5.0 19.0 0.00 0.10 0.00 87 1010.4
20260510071540 55 55 9.0 17.0 0.00 0.10 0.00 88 1010.3
20260510071037 55 51 8.0 15.0 0.00 0.10 0.00 90 1010.4
20260510070537 55 37 5.0 15.0 0.00 0.10 0.00 91 1010.4
20260510070036 54 49 6.0 15.0 0.00 0.10 0.00 92 1010.4
20260510065536 54 9 4.0 12.0 0.00 0.10 0.00 92 1010.4
20260510065034 54 60 3.0 12.0 0.00 0.10 0.00 92 1010.4
20260510064534 54 51 0.0 9.0 0.00 0.10 0.00 92 1010.4
20260510064033 54 37 1.0 12.0 0.00 0.10 0.00 93 1010.4
20260510063533 53 40 6.0 13.0 0.00 0.10 0.00 93 1010.4
20260510063033 53 17 4.0 13.0 0.00 0.10 0.00 93 1010.4
20260510062533 53 93 0.0 15.0 0.00 0.10 0.00 93 1010.4
20260510062031 53 10 5.0 15.0 0.00 0.10 0.00 93 1010.4
20260510061536 53 62 3.0 11.0 0.00 0.10 0.00 94 1010.4
20260510061031 53 58 2.0 12.0 0.00 0.10 0.00 94 1010.3
20260510060530 53 49 0.0 11.0 0.00 0.10 0.00 94 1010.3
20260510060045 53 44 1.0 11.0 0.00 0.10 0.00 94 1010.3
20260510055529 53 46 1.0 7.0 0.00 0.10 0.00 94 1010.2
20260510055029 53 24 3.0 11.0 0.00 0.10 0.00 94 1010.1
20260510054529 53 40 6.0 13.0 0.00 0.10 0.00 94 1010.1
20260510054029 53 16 2.0 13.0 0.00 0.10 0.00 94 1010.1
20260510053528 53 64 2.0 11.0 0.00 0.10 0.00 94 1010.0
20260510053030 53 30 3.0 12.0 0.00 0.10 0.00 94 1010.0
20260510052527 53 19 2.0 12.0 0.00 0.10 0.00 94 1010.0
20260510052027 53 72 4.0 9.0 0.00 0.10 0.00 94 1010.0
20260510051527 53 16 1.0 9.0 0.00 0.10 0.00 94 1010.0
20260510051026 53 5 1.0 9.0 0.00 0.10 0.00 95 1010.0
20260510050525 53 9 0.0 9.0 0.00 0.10 0.00 95 1009.9
20260510050026 53 34 0.0 8.0 0.00 0.10 0.00 95 1009.8
20260510045529 53 35 1.0 9.0 0.00 0.11 0.00 95 1009.8
20260510045025 53 13 3.0 12.0 0.00 0.11 0.00 95 1009.8
20260510044526 53 63 1.0 12.0 0.00 0.11 0.00 95 1009.8
20260510044027 53 21 1.0 9.0 0.00 0.11 0.00 95 1009.8
20260510043525 53 42 0.0 9.0 0.00 0.11 0.00 95 1009.8
20260510043025 53 38 2.0 11.0 0.00 0.11 0.00 95 1009.8
20260510042524 53 52 4.0 11.0 0.00 0.11 0.00 95 1009.8
20260510042022 53 69 2.0 11.0 0.00 0.11 0.00 95 1009.8
20260510041528 53 44 4.0 12.0 0.00 0.11 0.00 95 1009.8
20260510041021 53 38 5.0 12.0 0.00 0.11 0.00 95 1009.9
20260510040521 53 32 2.0 12.0 0.00 0.11 0.00 95 1009.8
20260510040021 53 46 3.0 14.0 0.00 0.11 0.00 95 1009.9
20260510035520 53 49 6.0 14.0 0.00 0.12 0.00 95 1009.9
20260510035022 53 28 3.0 11.0 0.00 0.12 0.00 95 1010.0
20260510034519 53 66 3.0 11.0 0.00 0.12 0.00 95 1010.1
20260510034019 52 63 3.0 13.0 0.00 0.12 0.00 95 1010.0
20260510033518 52 71 4.0 13.0 0.00 0.12 0.00 95 1010.0
20260510033018 52 40 1.0 11.0 0.00 0.12 0.00 95 1010.0
20260510032518 52 63 2.0 12.0 0.00 0.12 0.00 95 1010.0
20260510032017 52 32 4.0 14.0 0.00 0.12 0.00 95 1010.0
20260510031516 52 44 6.0 14.0 0.00 0.12 0.00 95 1010.0
20260510031016 53 74 1.0 15.0 0.00 0.12 0.00 95 1010.0
20260510030515 53 39 4.0 15.0 0.00 0.12 0.00 95 1010.1
20260510030015 53 11 5.0 13.0 0.00 0.12 0.00 95 1010.1
20260510025514 53 15 2.0 15.0 0.00 0.12 0.00 95 1010.2
20260510025016 53 28 4.0 19.0 0.00 0.12 0.00 95 1010.2
20260510024513 53 87 2.0 19.0 0.00 0.12 0.00 95 1010.2
20260510024012 53 34 1.0 12.0 0.00 0.12 0.00 95 1010.3
20260510023512 54 38 4.0 14.0 0.00 0.12 0.00 95 1010.3
20260510023029 54 49 4.0 12.0 0.00 0.12 0.00 95 1010.4
20260510022512 53 17 2.0 15.0 0.00 0.12 0.00 95 1010.5
20260510022009 53 15 4.0 15.0 0.00 0.12 0.00 95 1010.6
20260510021508 53 32 1.0 10.0 0.00 0.12 0.00 95 1010.6
20260510021008 53 43 0.0 10.0 0.00 0.12 0.00 95 1010.7
20260510020508 53 18 0.0 14.0 0.00 0.12 0.00 95 1010.7
20260510020007 53 49 1.0 14.0 0.00 0.12 0.00 95 1010.7
20260510015507 53 10 2.0 8.0 0.00 0.12 0.00 95 1010.7
20260510015006 53 5 1.0 5.0 0.00 0.12 0.00 96 1010.8
20260510014506 52 40 0.0 8.0 0.00 0.12 0.00 96 1010.9
20260510014005 52 36 1.0 8.0 0.00 0.12 0.00 96 1010.9
20260510013509 52 40 0.0 5.0 0.00 0.12 0.00 96 1010.9
20260510013011 51 28 0.0 4.0 0.00 0.12 0.00 96 1011.0
20260510012505 50 36 0.0 4.0 0.00 0.12 0.00 96 1011.1
20260510012003 50 48 0.0 4.0 0.00 0.12 0.00 95 1011.2
20260510011508 49 25 0.0 4.0 0.00 0.12 0.00 94 1011.2
20260510011005 49 52 0.0 0.0 0.00 0.12 0.00 94 1011.2
20260510010501 50 55 0.0 0.0 0.00 0.12 0.00 94 1011.2
20260510010004 50 55 0.0 0.0 0.00 0.12 0.00 94 1011.3
20260510005601 50 55 0.0 0.0 0.00 0.12 0.00 94 1011.3
20260510005059 50 54 0.0 0.0 0.00 0.12 0.00 94 1011.3
20260510004600 50 55 0.0 0.0 0.00 0.12 0.00 94 1011.4
20260510004058 50 55 0.0 0.0 0.00 0.12 0.00 94 1011.4
20260510003559 50 55 0.0 0.0 0.00 0.12 0.00 94 1011.5
20260510003103 50 55 0.0 0.0 0.00 0.12 0.00 93 1011.5
20260510002555 50 54 0.0 0.0 0.00 0.12 0.00 93 1011.6
20260510002054 50 54 0.0 0.0 0.00 0.12 0.00 94 1011.7
20260510001553 51 54 0.0 0.0 0.00 0.12 0.00 94 1011.8
20260510001053 51 54 0.0 0.0 0.00 0.12 0.00 93 1011.8
20260510000552 51 54 0.0 0.0 0.00 0.12 0.00 93 1011.8
20260510000052 51 54 0.0 0.0 0.00 0.12 0.00 94 1011.8
20260509235550 51 54 0.0 0.0 0.00 0.12 0.00 94 1011.8
20260509235051 51 54 0.0 0.0 0.00 0.12 0.00 94 1011.9
20260509234550 51 54 0.0 0.0 0.00 0.12 0.00 94 1011.9
20260509234050 51 54 0.0 0.0 0.00 0.12 0.00 93 1011.9
20260509233548 51 54 0.0 0.0 0.00 0.12 0.00 93 1012.0
20260509233048 52 54 0.0 0.0 0.00 0.12 0.00 93 1012.1
20260509232547 52 54 0.0 0.0 0.00 0.12 0.00 93 1012.1
20260509232048 52 54 0.0 0.0 0.00 0.12 0.00 93 1012.1
20260509231552 52 54 0.0 0.0 0.00 0.12 0.00 93 1012.1
20260509231044 52 54 0.0 0.0 0.00 0.12 0.00 93 1012.2
20260509230544 52 54 0.0 0.0 0.00 0.12 0.00 93 1012.3
20260509230044 53 54 0.0 0.0 0.00 0.12 0.00 93 1012.4
20260509225542 53 54 0.0 0.0 0.00 0.12 0.00 93 1012.4
20260509225041 53 54 0.0 0.0 0.00 0.12 0.00 93 1012.4
20260509224541 53 54 0.0 0.0 0.00 0.12 0.00 93 1012.5
20260509224041 53 54 0.0 0.0 0.00 0.12 0.00 93 1012.5
20260509223540 53 54 0.0 0.0 0.00 0.12 0.00 93 1012.4
20260509223040 53 54 0.0 0.0 0.00 0.12 0.00 93 1012.4
20260509222541 53 54 0.0 0.0 0.00 0.12 0.00 93 1012.4
20260509222038 54 54 0.0 0.0 0.00 0.12 0.00 92 1012.4
20260509221540 54 54 0.0 0.0 0.00 0.12 0.00 92 1012.4
20260509221037 54 54 0.0 0.0 0.00 0.12 0.00 93 1012.4
20260509220537 54 54 0.0 0.0 0.00 0.12 0.00 93 1012.5
20260509220037 54 54 0.0 0.0 0.00 0.12 0.00 93 1012.7
20260509215534 54 54 0.0 0.0 0.00 0.12 0.12 93 1012.7
20260509215036 54 54 0.0 0.0 0.00 0.12 0.12 93 1012.7
20260509214534 54 54 0.0 0.0 0.00 0.12 0.12 92 1012.7
20260509214034 54 54 0.0 0.0 0.00 0.12 0.12 92 1012.7
20260509213534 55 54 0.0 0.0 0.00 0.12 0.12 92 1012.7
20260509213037 55 54 0.0 0.0 0.00 0.12 0.12 92 1012.7
20260509212533 55 54 0.0 0.0 0.00 0.12 0.12 92 1012.7
20260509212032 55 54 0.0 0.0 0.00 0.12 0.12 92 1012.8
20260509211603 55 54 0.0 0.0 0.00 0.12 0.12 92 1012.9
20260509211033 55 54 0.0 0.0 0.00 0.12 0.12 92 1012.9
20260509210534 55 54 0.0 0.0 0.00 0.12 0.12 92 1012.9
20260509210033 56 54 0.0 0.0 0.00 0.12 0.12 92 1012.8
20260509205532 56 54 0.0 0.0 0.00 0.12 0.12 92 1012.8
20260509205032 56 54 0.0 0.0 0.00 0.12 0.12 92 1012.8
20260509204534 56 54 0.0 0.0 0.00 0.12 0.12 92 1012.7
20260509204032 56 54 0.0 0.0 0.00 0.12 0.12 92 1012.6
20260509203532 56 54 0.0 0.0 0.00 0.12 0.12 92 1012.6
20260509203040 56 54 0.0 0.0 0.00 0.12 0.12 92 1012.6
20260509202535 56 53 0.0 0.0 0.00 0.12 0.12 92 1012.6
20260509202030 56 53 0.0 0.0 0.00 0.12 0.12 92 1012.6
20260509201531 56 53 0.0 0.0 0.00 0.12 0.12 92 1012.7
20260509201030 56 53 0.0 0.0 0.00 0.12 0.12 91 1012.6
20260509200530 57 53 0.0 0.0 0.01 0.12 0.12 91 1012.5
20260509200032 57 53 0.0 0.0 0.01 0.12 0.12 91 1012.6
20260509195530 57 53 0.0 1.0 0.02 0.12 0.12 91 1012.6
20260509195030 57 65 0.0 0.0 0.02 0.12 0.12 91 1012.5
20260509194530 57 90 0.0 0.0 0.02 0.12 0.12 91 1012.5
20260509194030 57 90 0.0 0.0 0.05 0.12 0.12 90 1012.5
20260509193530 57 90 0.0 0.0 0.07 0.12 0.12 90 1012.6
20260509193030 57 90 0.0 0.0 0.09 0.12 0.12 90 1012.5
20260509192529 57 90 0.0 0.0 0.09 0.12 0.12 90 1012.5
20260509192029 57 90 0.0 0.0 0.09 0.12 0.12 89 1012.4
20260509191529 58 90 0.0 0.0 0.09 0.12 0.12 89 1012.3
20260509191032 58 90 0.0 0.0 0.09 0.12 0.12 88 1012.3
20260509190528 58 90 0.0 0.0 0.09 0.11 0.11 87 1012.4
20260509190028 58 83 0.0 0.0 0.09 0.11 0.11 86 1012.5
20260509185528 59 72 0.0 0.0 0.08 0.10 0.10 85 1012.5
20260509185027 59 72 0.0 0.0 0.08 0.10 0.10 84 1012.4
20260509184527 59 72 0.0 0.0 0.06 0.09 0.09 83 1012.3
20260509184027 60 73 0.0 9.0 0.04 0.06 0.06 81 1012.2
20260509183531 60 88 0.0 10.0 0.02 0.05 0.05 79 1012.2
20260509183026 61 86 2.0 10.0 0.01 0.03 0.03 78 1012.1
20260509182525 61 70 0.0 10.0 0.01 0.03 0.03 76 1011.9
20260509182025 61 70 3.0 10.0 0.00 0.02 0.02 75 1011.8
20260509181527 62 75 2.0 10.0 0.00 0.02 0.02 73 1011.8
20260509181026 62 55 4.0 13.0 0.00 0.02 0.02 72 1011.8
20260509180527 63 71 3.0 13.0 0.00 0.02 0.02 71 1011.7
20260509180025 63 55 2.0 10.0 0.00 0.02 0.02 71 1011.6
20260509175525 63 54 1.0 10.0 0.00 0.02 0.02 71 1011.5
20260509175024 63 21 4.0 11.0 0.00 0.02 0.02 70 1011.4
20260509174524 64 54 4.0 11.0 0.00 0.02 0.02 70 1011.4
20260509174027 64 44 5.0 11.0 0.00 0.02 0.02 70 1011.4
20260509173523 64 39 2.0 11.0 0.00 0.02 0.02 71 1011.2
20260509173023 64 38 4.0 11.0 0.00 0.02 0.02 70 1011.2
20260509172525 64 39 2.0 10.0 0.00 0.02 0.02 70 1011.1
20260509172023 64 18 0.0 10.0 0.00 0.02 0.02 70 1011.1
20260509171522 64 15 5.0 14.0 0.00 0.02 0.02 69 1011.1
20260509171022 64 51 5.0 15.0 0.00 0.02 0.02 68 1011.1
20260509170522 64 35 7.0 15.0 0.00 0.02 0.02 67 1011.1
20260509170021 64 27 6.0 16.0 0.00 0.02 0.02 69 1011.1
20260509165521 64 5 8.0 16.0 0.00 0.02 0.02 70 1011.1
20260509165020 64 10 4.0 15.0 0.00 0.02 0.02 69 1011.2
20260509164520 65 28 5.0 15.0 0.00 0.02 0.02 69 1011.2
20260509164021 65 10 4.0 15.0 0.00 0.02 0.02 69 1011.0
20260509163520 65 17 6.0 16.0 0.00 0.02 0.02 68 1011.1
20260509163023 65 17 8.0 16.0 0.00 0.02 0.02 67 1011.0
20260509162519 65 67 7.0 17.0 0.00 0.02 0.02 67 1011.2
20260509162020 66 5 7.0 17.0 0.00 0.02 0.02 65 1011.3
20260509161520 66 48 3.0 13.0 0.00 0.02 0.02 67 1011.2
20260509161018 66 51 5.0 14.0 0.00 0.02 0.02 67 1011.3
20260509160519 66 31 7.0 14.0 0.00 0.02 0.02 66 1011.2
20260509160019 66 28 2.0 12.0 0.00 0.02 0.02 66 1011.1
20260509155518 66 24 2.0 10.0 0.00 0.02 0.02 67 1011.1
20260509155016 67 42 4.0 12.0 0.00 0.02 0.02 67 1011.2
20260509154517 67 347 2.0 12.0 0.00 0.02 0.02 68 1011.3
20260509154015 67 48 4.0 12.0 0.00 0.02 0.02 67 1011.4
20260509153516 67 17 5.0 13.0 0.00 0.02 0.02 68 1011.4
20260509153020 67 30 4.0 13.0 0.00 0.02 0.02 67 1011.4
20260509152514 68 360 4.0 14.0 0.00 0.02 0.02 66 1011.4
20260509152018 68 51 4.0 15.0 0.00 0.02 0.02 68 1011.4
20260509151514 68 49 8.0 15.0 0.00 0.02 0.02 67 1011.4
20260509151013 68 20 2.0 13.0 0.00 0.02 0.02 67 1011.4
20260509150513 68 49 8.0 13.0 0.00 0.02 0.02 68 1011.6
20260509150014 69 12 5.0 14.0 0.00 0.02 0.02 70 1011.5
20260509145514 68 28 6.0 11.0 0.00 0.02 0.02 68 1011.6
20260509145014 68 15 4.0 10.0 0.00 0.02 0.02 71 1011.5
20260509144510 68 31 4.0 12.0 0.00 0.02 0.02 72 1011.7
20260509144009 68 355 5.0 11.0 0.00 0.02 0.02 70 1011.8
20260509143509 68 73 4.0 11.0 0.00 0.02 0.02 71 1011.9
20260509143009 68 9 3.0 11.0 0.00 0.02 0.02 71 1011.9
20260509142512 68 34 4.0 10.0 0.00 0.02 0.02 72 1011.9
20260509142007 68 46 3.0 11.0 0.00 0.02 0.02 71 1012.0
20260509141506 68 63 5.0 11.0 0.00 0.02 0.02 73 1012.0
20260509141009 67 28 1.0 11.0 0.00 0.02 0.02 72 1012.1
20260509140503 67 24 2.0 9.0 0.00 0.02 0.02 76 1012.2
20260509140004 66 355 3.0 9.0 0.00 0.02 0.02 74 1012.3
20260509135505 66 346 3.0 9.0 0.00 0.02 0.02 75 1012.3
20260509135002 65 27 3.0 10.0 0.00 0.02 0.02 75 1012.4
20260509134502 65 348 4.0 10.0 0.00 0.02 0.02 76 1012.4
20260509134001 65 11 0.0 7.0 0.00 0.02 0.02 77 1012.4
20260509133502 65 17 0.0 5.0 0.00 0.02 0.02 78 1012.5
20260509133002 64 38 0.0 9.0 0.00 0.02 0.02 76 1012.4
20260509132502 64 360 2.0 9.0 0.00 0.02 0.02 78 1012.3
20260509132001 64 16 0.0 4.0 0.00 0.02 0.02 80 1012.4
20260509131501 64 17 0.0 0.0 0.00 0.02 0.02 82 1012.4
20260509131003 64 17 0.0 6.0 0.00 0.02 0.02 78 1012.4
20260509130501 64 17 2.0 9.0 0.00 0.02 0.02 78 1012.3
20260509130003 64 34 1.0 9.0 0.00 0.02 0.02 78 1012.2
20260509125600 64 20 1.0 6.0 0.00 0.02 0.02 78 1012.2
20260509125059 64 22 0.0 4.0 0.00 0.02 0.02 77 1012.3
20260509124606 64 22 0.0 4.0 0.00 0.02 0.02 78 1012.4
20260509124058 64 35 0.0 1.0 0.00 0.02 0.02 77 1012.5
20260509123600 64 49 0.0 0.0 0.00 0.02 0.02 77 1012.6
20260509123058 63 49 0.0 0.0 0.00 0.02 0.02 76 1012.6
20260509122557 64 49 0.0 0.0 0.00 0.02 0.02 75 1012.6
20260509122057 63 49 0.0 5.0 0.00 0.02 0.02 72 1012.7
20260509121557 64 49 0.0 8.0 0.00 0.02 0.02 71 1012.7
20260509121058 64 69 1.0 8.0 0.00 0.02 0.02 70 1012.7
20260509120557 64 92 2.0 9.0 0.00 0.02 0.02 69 1012.6
20260509120058 64 45 2.0 11.0 0.00 0.02 0.02 69 1012.6
20260509115556 64 49 4.0 11.0 0.00 0.02 0.02 67 1012.6
20260509115056 64 112 4.0 9.0 0.00 0.02 0.02 66 1012.6
20260509114600 65 63 0.0 8.0 0.00 0.02 0.02 66 1012.6
20260509114055 65 113 2.0 8.0 0.00 0.02 0.02 66 1012.5
20260509113556 65 83 0.0 10.0 0.00 0.02 0.02 66 1012.5
20260509113055 65 74 3.0 10.0 0.00 0.02 0.02 66 1012.5
20260509112554 65 33 0.0 11.0 0.00 0.02 0.02 66 1012.5
20260509112054 66 33 0.0 11.0 0.00 0.02 0.02 64 1012.5
20260509111557 66 97 2.0 10.0 0.00 0.02 0.02 63 1012.5
20260509111054 66 62 1.0 13.0 0.00 0.02 0.02 63 1012.6
20260509110557 67 94 4.0 13.0 0.00 0.02 0.02 63 1012.6
20260509110057 67 128 6.0 14.0 0.00 0.02 0.02 63 1012.6
20260509105551 66 77 5.0 14.0 0.00 0.02 0.02 66 1012.6
20260509105050 66 120 5.0 14.0 0.00 0.02 0.02 66 1012.7
20260509104549 65 63 4.0 14.0 0.00 0.02 0.02 70 1012.7
20260509104049 65 49 4.0 14.0 0.00 0.02 0.02 67 1012.7
20260509103546 65 77 5.0 13.0 0.00 0.02 0.02 72 1012.7
20260509103046 64 57 2.0 13.0 0.00 0.02 0.02 70 1012.7
20260509102544 64 42 3.0 11.0 0.00 0.02 0.02 74 1012.7
20260509102043 63 40 2.0 11.0 0.00 0.02 0.02 74 1012.8
20260509101542 63 71 5.0 11.0 0.00 0.02 0.02 70 1012.9
20260509101041 63 53 6.0 11.0 0.00 0.02 0.02 72 1012.9
20260509100540 62 42 3.0 9.0 0.00 0.02 0.02 72 1012.9
20260509100040 62 55 1.0 7.0 0.00 0.02 0.02 71 1012.9
20260509095540 62 60 0.0 7.0 0.00 0.02 0.02 74 1012.9
20260509095038 61 24 0.0 8.0 0.00 0.02 0.02 72 1012.9
20260509094539 62 73 2.0 10.0 0.00 0.02 0.02 71 1013.0
20260509094037 62 34 3.0 10.0 0.00 0.02 0.02 72 1012.9
20260509093538 62 51 3.0 9.0 0.00 0.02 0.02 73 1013.1
20260509093036 62 57 2.0 8.0 0.00 0.02 0.02 77 1013.0
20260509092534 61 49 1.0 7.0 0.00 0.02 0.02 78 1013.1
20260509092036 60 57 1.0 10.0 0.00 0.02 0.02 78 1013.0
20260509091536 60 59 2.0 10.0 0.00 0.02 0.02 76 1013.0
20260509091033 60 68 3.0 9.0 0.00 0.02 0.02 77 1013.0
20260509090532 60 33 2.0 10.0 0.00 0.02 0.02 76 1013.0
20260509090032 60 49 3.0 9.0 0.00 0.02 0.02 78 1013.1
20260509085533 60 61 3.0 10.0 0.00 0.02 0.02 79 1013.2
20260509085030 60 88 2.0 8.0 0.00 0.02 0.02 80 1013.3
20260509084531 59 44 1.0 7.0 0.00 0.02 0.02 83 1013.2
20260509084027 58 74 0.0 0.0 0.01 0.02 0.02 83 1013.3
20260509083529 58 73 0.0 0.0 0.01 0.02 0.02 84 1013.2
20260509083026 57 73 0.0 1.0 0.01 0.02 0.02 82 1013.3
20260509082524 57 28 0.0 3.0 0.01 0.02 0.02 83 1013.3
20260509082024 57 89 0.0 3.0 0.01 0.02 0.02 83 1013.3
20260509081525 57 57 0.0 7.0 0.01 0.02 0.02 83 1013.4